sat.trackr.live / text

‹ back to catalog

STARLINK-33755

NORAD 63579 · 2025-076L

PAYLOAD ACTIVE UNKNOWN

§ Identity

Operator
Country
US
Launch date
2025-04-14
Launch site
AFETR
Launch vehicle
Mass (kg)
RCS (m²)

Purposes: comms

External: N2YO · Heavens-Above · Gunter

§ Orbital elements

Epoch: 2026-09-20T03:58:57.692064Z

Period
94.27 min
Inclination
43.0005°
Eccentricity
0.0001016
Mean motion
15.27578833 rev/d
Perigee alt
482.4 km
Apogee alt
483.7 km
Semi-major
6,861.2 km
B*
1.8456e-4
RAAN
303.2573°
Arg perigee
248.3123°
Mean anomaly
111.7621°
Rev number
8,157

§ Raw data

STARLINK-337551 63579U 25076L   26263.16594551  .00004820  00000+0  18456-3 0  99952 63579  43.0005 303.2573 0001016 248.3123 111.7621 15.27578833 81577

JSON: /api/v1/satellites/63579 · /tle

For live sub-satellite position, see the globe view (requires WebGL).

§ Visibility from observer

Set your observer location to see the next 7 days of passes ≥ 10°. The values pass through the URL so the page stays shareable.

No JS? Fill the form by hand. The geolocation button needs JavaScript.